Weather Roundup
Issued by NWS

Home | Current Version | Previous Version | Graphics & Text | Print | Product List | Glossary Off
Versions: 1 2 3 4 5 6 7 8 9 10 11 12 13 14 15 16 17 18 19 20 21 22 23 24 25 26 27 28 29 30 31 32 33 34 35 36 37 38 39 40 41 42 43 44 45 46 47 48 49 50

757
NZUS93 KARX 241210
HRRWXR

CURRENT HOURLY OBSERVATIONS ACROSS
MUCH OF THE UPPER MISSISSIPPI VALLEY
NATIONAL WEATHER SERVICE LA CROSSE WI
700 AM CDT TUE MAY 24 2016


...SOUTHEAST MINNESOTA...


CITY           SKY/WX    TMP DP  RH WIND       PRES   REMARKS
ROCHESTER      CLOUDY    64  61  90 S8        29.87R
ROCHESTER/MAYO CLOUDY    64  63  95 S3        29.87S
WINONA         CLOUDY    63  61  94 CALM      29.87R
AUSTIN         PTSUNNY   63  59  88 CALM      29.86S
ALBERT LEA     CLOUDY    64  61  88 CALM      29.86R
DODGE CENTER   CLOUDY    63  61  94 SW8       29.86S
PRESTON        CLOUDY    62  58  86 CALM      29.87F
OWATONNA       CLOUDY    64  59  82 SW5       29.86R
FARIBAULT      CLOUDY    63  61  94 SW5       29.86R
$$

...ELSEWHERE IN MINNESOTA...


CITY           SKY/WX    TMP DP  RH WIND       PRES   REMARKS
MINNEAPOLIS    MOSUNNY   66  59  78 SW7       29.84R
INTNL FALLS    CLOUDY    55  54  96 CALM      29.80R
DULUTH         CLOUDY    59  58  96 N7        29.84R FOG
RED WING       PTSUNNY   64  63  94 CALM      29.85R
REDWOOD FALLS  MOSUNNY   61  59  93 S3        29.83R FOG
MANKATO        CLOUDY    64  57  77 SW7       29.84S
WORTHINGTON    CLOUDY    61  59  93 S9        29.87R
FAIRMONT       CLOUDY    63  59  88 SW9       29.85R
$$

...SOUTHWEST WISCONSIN...


CITY           SKY/WX    TMP DP  RH WIND       PRES   REMARKS
LA CROSSE      CLOUDY    69  55  60 S7        29.86S
PRAIRIE DU CHI CLOUDY    68  53  60 CALM      29.89S
BOSCOBEL       MOSUNNY   66  56  70 CALM      29.90S
LONE ROCK      MOSUNNY   64  54  69 CALM      29.92S
PLATTEVILLE    MOSUNNY   66  52  61 S9        29.93S
FORT MC COY    CLOUDY    63  55  75 CALM      29.89S
CAMP DOUGLAS   PTSUNNY   63  61  94 SE5       29.89R
MAUSTON-NEW LI CLOUDY    65  52  61 S6        29.90R
VIROQUA        FAIR      67  54  63 SW5       29.90S
WIS DELLS      CLOUDY    65  49  55 S7        29.91S
$$

...ELSEWHERE IN WISCONSIN...


CITY           SKY/WX    TMP DP  RH WIND       PRES   REMARKS
MILWAUKEE      CLOUDY    63  48  58 SW8       29.96R
MADISON        PTSUNNY   63  49  60 S8        29.93S
GREEN BAY      CLOUDY    61  49  64 W3        29.91R
EAU CLAIRE     CLOUDY    64  62  93 SE6       29.86R
BLACK RVR FLS  PTSUNNY   62  60  94 CALM      29.87R
MEDFORD        CLOUDY    60  60 100 S5        29.90R
WAUSAU         LGT RAIN  62  53  72 S6        29.90R
WIS RAPIDS     CLOUDY    60  54  80 S5        29.91S
MARSHFIELD     CLOUDY    61  55  81 S6        29.89R
RICE LAKE      LGT RAIN  63  60  90 SE6       29.86S
$$

...NORTHEAST IOWA...


CITY           SKY/WX    TMP DP  RH WIND       PRES   REMARKS
WATERLOO       CLOUDY    64  60  87 S9        29.88R
DUBUQUE        MOSUNNY   63  53  70 S8        29.92F
DECORAH        CLOUDY    64  59  82 S6        29.86F
MASON CITY     CLOUDY    61  60  97 W7        29.86S
CHARLES CITY   CLOUDY    63  63 100 CALM      29.87R
OELWEIN        CLOUDY    64  63  94 S10       29.89F
$$

...ELSEWHERE IN IOWA...


CITY           SKY/WX    TMP DP  RH WIND       PRES   REMARKS
DES MOINES     CLOUDY    64  61  90 S5        29.87F FOG
IOWA CITY      CLOUDY    63  61  93 SE3       29.94S
FORT DODGE     CLOUDY    59  55  88 CALM      29.87R
MARSHALLTOWN   CLOUDY    63  62  97 SE7       29.87S
CEDAR RAPIDS   PTSUNNY   63  61  93 S6        29.91F
$$

...NORTHERN ILLINOIS...


CITY           SKY/WX    TMP DP  RH WIND       PRES   REMARKS
CHICAGO-OHARE  CLOUDY    61  49  64 S6        29.99R
CHICAGO-MIDWAY PTSUNNY   65  45  48 S7        30.00R
MOLINE         SUNNY     67  53  61 CALM      29.95R
ROCKFORD       PTSUNNY   60  53  77 S3        29.98S
PEORIA         SUNNY     63  54  72 S7        30.00R
$$

NOTE: "FAIR" INDICATES FEW OR NO CLOUDS BELOW 12,000 FEET WITH NO
SIGNIFICANT WEATHER AND/OR OBSTRUCTIONS TO VISIBILITY. WIND
SPEEDS ARE IN MILES-PER-HOUR.




USA.gov is the U.S. government's official web portal to all federal, state and local government web resources and services.